Theta_e
337 336 335 335 335 334 334 334 334 334 335 336 336 336 338 337 337 337 337 338 337 336 336 335 335 337 337 337 337 337 337 337 336 335 335 334 334 334 334 334 334 334 334 334 334 334 334 333 333 332 332 332 332 331 331 332 333 333 334 333 331 329 329 329 329 330 330 330 330 329 329 330 330 330 331 331 332 332 331 331 331 331 331 329 329
337 336 334 334 334 334 334 334 333 333 334 336 336 335 336 336 336 336 337 338 336 335 335 335 336 337 337 337 337 337 336 335 335 335 334 334 334 334 334 334 334 333 334 333 333 333 333 332 332 332 332 332 332 331 331 332 332 333 334 333 331 329 328 329 329 330 329 329 329 328 328 328 329 329 330 330 330 331 331 331 331 331 331 330 329
338 336 335 335 334 334 335 333 333 333 333 335 335 334 335 335 336 336 337 337 336 335 335 335 336 337 337 336 336 336 335 334 334 334 333 333 334 334 334 333 333 333 333 333 332 332 331 331 331 331 331 332 331 331 332 332 332 333 333 333 330 329 328 328 329 329 329 329 328 329 328 328 328 328 328 328 327 328 329 330 331 330 330 330 329
339 338 337 337 334 333 333 331 331 332 333 334 334 333 333 334 336 336 336 336 335 335 335 336 337 337 336 336 335 335 334 333 333 333 333 333 333 333 333 333 333 332 332 332 332 331 330 330 330 331 331 331 331 331 332 332 332 333 333 333 331 329 328 328 328 329 330 330 329 329 327 327 330 328 326 327 327 327 328 329 330 329 329 329 329
340 340 337 335 332 330 330 329 330 330 331 332 333 333 333 333 335 336 335 335 335 334 335 337 337 337 336 335 333 333 333 333 333 333 333 333 333 332 332 332 332 332 331 331 332 331 330 330 330 330 331 331 331 331 332 332 332 333 332 332 331 330 329 329 329 329 329 329 329 329 329 331 332 328 326 327 327 327 328 328 329 329 328 328 328
340 337 333 331 329 328 329 328 329 330 331 332 333 332 332 333 335 336 336 335 334 334 335 337 337 337 336 334 332 332 333 332 333 333 332 332 332 331 331 331 330 330 330 331 332 331 330 330 330 331 331 331 331 331 331 332 332 333 332 331 330 330 329 329 329 329 329 329 328 329 330 331 329 327 328 328 326 327 327 328 328 328 327 327 327
336 332 330 330 329 328 328 328 329 330 331 332 332 331 331 333 335 336 336 335 335 335 336 337 337 336 335 332 331 331 331 331 331 330 329 330 331 331 330 330 329 328 327 328 329 329 328 329 330 330 330 331 331 331 331 331 332 332 332 331 330 330 329 329 329 329 329 329 329 329 328 328 327 327 328 327 327 327 327 327 327 326 326 326 326
331 331 330 330 328 328 328 328 329 330 331 330 330 330 332 335 336 336 335 335 336 336 336 336 336 335 332 331 331 330 330 330 331 330 328 329 330 331 331 330 329 327 326 326 326 326 326 327 328 328 330 330 330 330 330 331 331 332 332 330 330 329 329 329 329 329 329 329 329 330 329 327 327 326 326 326 327 327 326 327 327 326 326 326 325
330 330 330 329 328 328 328 328 329 331 333 332 331 331 333 335 336 335 335 335 334 335 335 335 334 332 330 330 330 330 330 331 331 331 329 329 329 329 329 329 328 326 326 327 327 327 327 326 327 328 329 329 329 329 330 330 330 331 330 330 330 329 329 330 330 329 329 329 329 330 329 327 327 326 325 325 325 327 327 326 326 326 325 325 324
329 329 329 329 329 328 328 329 329 330 334 335 334 334 334 335 335 336 336 334 332 332 333 332 331 330 329 328 328 328 328 329 331 331 329 329 328 328 327 326 326 325 326 327 327 327 327 326 326 327 328 328 329 329 329 330 330 331 330 330 331 330 329 329 329 329 329 329 330 330 329 327 326 325 324 324 324 325 326 325 325 325 325 324 323
330 330 330 329 329 329 328 328 328 330 332 334 335 334 334 335 335 336 335 333 332 331 331 331 329 329 328 327 327 326 326 327 329 329 327 327 327 327 326 326 326 325 326 326 327 327 326 326 326 326 328 328 328 329 329 330 330 330 330 330 330 329 329 329 328 328 328 329 330 329 328 327 327 325 324 324 323 322 324 325 324 324 322 321 321
330 331 331 329 329 328 328 328 328 330 331 333 335 334 334 334 335 335 334 333 332 330 330 329 327 327 327 327 327 327 325 325 326 326 325 325 326 327 326 326 326 326 326 326 327 326 325 326 326 326 327 327 327 328 329 329 329 330 330 329 330 329 329 328 327 327 327 329 330 329 328 327 326 326 324 324 323 322 324 323 322 321 318 317 318
330 330 330 329 329 328 327 328 328 329 331 332 333 334 334 335 335 336 334 333 333 331 328 326 325 325 327 328 327 325 325 325 325 324 323 324 326 327 326 326 326 326 326 326 326 326 325 325 325 325 326 326 326 326 327 328 328 328 329 329 329 328 328 328 327 327 327 328 329 328 327 327 326 325 323 323 323 322 322 320 319 318 316 315 316
330 329 329 329 329 328 327 328 328 329 330 331 332 333 334 335 335 335 333 332 332 331 328 326 326 327 327 327 326 325 325 324 323 323 324 326 326 326 326 325 325 326 326 325 325 325 325 325 324 324 324 325 326 326 327 327 327 328 328 328 328 327 327 327 326 327 327 328 329 328 327 326 326 325 323 322 322 322 321 319 318 317 315 313 313
330 330 330 329 328 327 327 328 328 330 330 331 332 332 333 334 334 333 332 331 331 331 329 328 329 329 327 327 326 326 325 323 323 325 327 327 326 326 326 325 325 325 325 325 324 325 325 324 324 323 323 325 326 326 326 327 327 328 328 328 328 328 327 327 326 326 326 326 327 328 327 326 326 325 323 322 322 321 320 319 317 316 314 310 309
331 330 330 329 327 326 328 328 328 329 329 330 331 332 333 333 333 332 331 329 330 331 330 329 330 329 326 327 326 325 324 322 324 327 326 326 326 326 326 325 325 324 325 324 324 324 324 323 324 323 322 324 325 325 326 326 327 328 328 328 327 327 327 326 326 326 326 325 325 326 327 326 325 325 323 322 321 320 320 319 317 315 312 310 309
330 330 330 329 327 327 328 327 328 329 329 330 330 331 332 332 332 331 330 329 329 331 330 329 330 329 326 326 325 323 322 321 324 325 324 324 325 326 326 325 325 325 324 324 323 324 324 323 323 322 321 323 324 325 325 325 326 326 326 325 323 322 322 322 322 323 323 324 325 325 325 326 326 325 324 322 321 321 319 318 317 315 312 310 310
329 329 329 328 327 327 327 327 328 329 330 330 330 330 330 330 330 329 329 329 328 330 331 329 330 330 326 324 324 323 322 322 323 324 323 324 324 325 326 325 325 324 324 323 323 323 322 321 320 320 320 322 324 325 325 324 325 325 325 322 318 317 317 317 317 318 319 321 320 320 322 325 326 326 324 322 321 320 319 319 318 315 312 310 309
329 328 329 328 327 326 327 328 328 329 330 330 330 331 330 329 328 328 328 327 326 328 330 330 331 331 327 324 324 323 323 323 324 324 323 323 324 325 325 325 324 324 322 321 321 321 320 320 320 320 319 320 322 323 323 323 323 324 324 321 317 315 316 315 315 316 317 317 316 316 319 322 324 324 324 323 322 320 319 319 317 313 311 311 308
329 328 328 327 326 326 327 328 328 329 329 330 330 331 330 330 328 328 328 327 325 327 330 330 331 330 327 325 324 324 324 324 323 323 322 323 324 325 325 324 323 321 318 318 320 320 320 321 321 319 318 318 319 320 320 320 319 320 321 319 317 316 316 316 316 315 315 315 315 316 317 319 320 321 320 320 321 320 320 320 317 311 309 310 308
329 327 327 326 326 327 327 328 328 328 329 329 330 330 331 331 330 329 329 328 328 329 330 328 326 326 326 325 325 324 323 323 323 322 322 323 324 324 324 323 321 317 316 318 320 321 321 321 319 318 318 317 317 318 318 318 318 318 317 317 318 317 317 317 315 315 314 314 315 315 316 316 317 317 317 317 317 317 318 320 317 312 309 309 308
327 326 326 326 326 326 326 327 328 328 328 329 329 330 331 331 331 331 330 330 330 329 329 327 325 325 326 325 324 324 323 323 323 323 322 323 324 324 323 322 318 316 316 318 319 320 320 319 318 317 317 316 316 316 316 317 317 317 316 317 318 318 318 317 316 315 315 314 315 315 315 315 315 316 317 316 316 316 316 317 316 313 311 309 308
327 326 326 326 325 326 326 326 327 326 327 327 327 328 328 329 329 329 329 329 328 329 328 327 326 326 326 325 324 323 323 323 323 323 322 323 323 323 322 320 317 316 316 316 316 317 317 317 316 316 316 315 315 314 314 316 315 316 316 316 318 318 317 316 316 317 316 315 315 315 314 314 314 315 316 316 316 316 316 315 314 312 311 309 309
327 326 325 325 325 325 325 325 325 324 324 325 325 325 325 326 326 327 327 327 326 326 327 325 324 325 326 325 324 323 323 322 322 321 321 322 322 322 321 319 317 316 315 314 314 314 315 315 315 315 315 314 313 313 313 314 314 314 314 316 317 317 317 317 317 317 316 315 315 315 314 314 313 313 314 315 316 316 316 315 313 312 311 311 311
326 325 325 325 324 324 324 324 323 322 323 324 324 324 323 324 325 325 325 325 324 324 325 324 324 324 325 325 325 324 324 323 321 321 320 321 321 321 320 319 317 316 315 314 314 314 314 314 314 314 315 314 313 313 313 313 313 313 314 315 317 317 317 317 317 316 316 315 315 314 314 313 313 313 313 314 315 316 316 316 315 314 314 313 313
322 322 321 321 320 321 321 322 323 323 323 324 323 323 323 323 324 324 324 325 325 324 324 324 325 325 325 325 324 324 324 321 319 320 320 320 321 321 320 319 318 316 316 315 314 314 313 314 314 314 315 314 314 314 313 313 314 314 314 315 316 317 317 317 316 316 315 315 314 314 314 314 313 313 313 313 314 315 315 315 316 315 315 314 314
314 314 313 312 312 313 313 315 319 322 323 323 323 323 323 323 324 323 323 324 325 324 324 323 324 325 324 323 322 323 323 322 320 321 321 320 320 320 319 319 319 317 317 316 315 314 314 313 313 314 315 315 315 315 314 314 315 315 314 315 316 316 317 316 316 316 315 315 314 314 314 315 314 313 313 313 313 313 313 314 315 315 315 315 315
307 307 307 307 307 307 307 308 311 314 316 318 320 323 324 323 323 324 324 324 324 324 323 322 323 324 323 322 321 322 323 322 320 321 322 321 319 320 319 319 319 317 316 317 315 314 314 314 313 314 315 315 315 315 314 315 315 315 315 316 316 316 316 315 315 315 314 314 313 313 313 313 313 313 313 313 313 312 312 313 313 313 314 314 314
305 304 304 304 304 304 305 305 306 307 308 309 313 318 321 323 323 323 323 323 323 323 323 322 322 322 322 321 321 322 322 320 319 321 323 323 320 319 319 319 319 317 316 317 316 314 315 315 313 313 314 315 315 314 314 315 316 315 315 315 315 315 315 315 315 314 314 314 314 314 313 312 312 312 312 313 313 313 312 312 313 313 313 313 314
304 304 303 303 302 302 303 303 304 304 305 305 306 311 318 322 323 322 322 322 322 322 322 322 322 321 321 321 321 322 321 320 321 322 323 323 321 320 319 319 319 317 316 317 316 314 315 315 315 314 313 314 315 314 314 314 315 316 315 315 314 315 315 315 314 314 314 315 315 315 315 315 314 313 313 314 314 314 313 313 312 313 313 313 313
304 303 303 302 302 302 302 302 303 303 303 304 305 308 313 317 317 318 318 317 319 321 322 322 322 322 322 322 321 321 321 321 322 323 323 322 321 321 321 321 321 320 319 318 317 316 315 315 315 314 314 314 314 315 315 314 314 315 315 315 315 315 315 315 315 315 315 316 316 316 316 316 316 315 315 315 316 316 315 314 314 313 313 313 313
304 303 302 302 301 302 302 301 301 302 302 303 304 306 308 308 309 309 309 309 310 313 316 319 321 322 322 322 321 321 321 321 322 322 321 322 322 322 322 322 321 321 321 320 319 318 318 317 316 315 315 315 315 315 315 315 315 315 315 316 316 315 316 316 316 316 316 316 316 316 317 316 316 316 316 316 317 317 317 316 316 316 315 313 313
303 303 302 302 302 302 302 301 301 301 301 301 303 304 305 305 305 305 305 305 305 305 306 309 312 314 314 316 318 320 321 321 321 321 321 321 321 322 322 322 321 322 322 322 321 320 320 319 318 317 316 315 315 316 316 315 315 316 316 317 317 317 317 317 317 317 317 317 316 316 317 317 317 317 317 317 317 317 317 317 317 317 316 315 314
302 303 302 302 301 301 301 301 301 302 301 301 302 303 303 304 304 304 304 304 304 303 303 303 303 304 304 306 309 312 314 316 317 318 318 319 320 321 320 320 320 320 321 322 322 322 322 321 320 319 319 318 317 317 317 316 315 316 317 317 317 318 318 318 318 318 318 318 318 318 318 318 318 318 318 318 318 318 317 317 317 317 316 316 315
303 303 303 302 301 301 300 300 300 301 301 302 302 302 303 303 303 303 303 303 303 303 302 302 302 302 302 303 304 304 306 307 308 308 310 312 316 318 320 320 320 320 320 321 321 321 322 321 321 321 321 320 320 319 319 318 317 317 317 317 317 318 319 319 319 319 319 320 320 320 319 319 319 319 319 319 319 319 318 317 316 316 316 315 315
303 302 302 301 300 300 300 300 300 300 301 301 302 303 302 302 302 302 302 302 302 302 301 301 301 301 302 302 302 303 303 304 304 305 305 306 308 310 312 314 314 315 316 318 319 319 320 320 321 322 322 322 322 321 321 321 320 320 320 319 319 319 320 320 321 321 321 321 320 321 321 320 320 320 319 318 318 319 318 317 316 316 315 315 315
301 301 301 301 300 300 300 301 301 301 301 300 301 302 303 302 302 301 301 301 300 301 301 300 300 300 301 301 301 302 302 302 303 303 303 304 304 304 305 306 306 307 308 309 310 313 316 318 320 321 322 322 322 323 323 322 322 322 322 321 321 321 321 321 321 322 322 321 319 320 322 322 321 322 321 319 318 319 318 317 316 315 314 314 314
301 301 301 301 301 301 301 301 301 301 301 300 300 300 302 301 301 300 300 300 300 300 300 300 300 300 300 300 300 301 301 301 301 302 302 302 303 303 303 303 303 304 304 304 304 306 308 311 314 317 320 321 322 323 323 323 322 322 322 323 322 322 321 321 320 320 320 320 319 320 321 322 321 321 321 320 319 319 318 317 316 315 313 313 313
302 302 302 302 301 301 301 301 301 301 301 301 300 300 301 300 300 300 300 300 301 300 300 300 300 300 300 300 300 300 300 300 300 300 301 301 301 302 302 303 303 303 303 303 303 304 305 306 308 310 313 316 319 321 322 321 322 322 322 322 323 323 322 321 321 320 319 319 319 320 319 320 320 320 319 319 318 318 318 317 317 315 313 312 312
301 302 302 301 301 301 301 301 301 301 301 300 301 301 300 300 300 300 300 300 300 300 300 300 300 300 300 300 300 300 300 300 300 300 300 300 300 300 301 301 302 302 302 302 303 303 304 304 305 306 307 309 313 317 320 321 321 321 321 321 322 322 322 321 321 320 318 318 318 318 318 318 318 318 317 317 318 318 318 318 317 315 314 313 312
300 301 301 301 301 301 301 300 301 301 300 300 301 301 300 300 300 300 300 300 299 299 299 299 299 299 299 299 299 299 299 299 299 299 299 299 299 300 300 300 300 301 301 302 302 302 303 303 304 304 305 305 307 311 316 319 321 321 321 321 321 321 321 320 320 319 319 318 317 317 318 317 317 317 317 317 318 318 317 318 317 316 315 315 312
300 301 301 301 301 301 301 300 301 301 300 300 300 300 300 299 299 299 299 299 299 299 299 299 299 299 299 299 298 298 298 298 298 298 298 299 299 299 299 299 300 300 300 301 301 301 302 302 303 303 304 304 305 306 309 314 317 319 320 320 320 320 319 319 319 319 319 318 318 318 318 317 317 317 317 317 317 317 317 317 317 316 315 314 312
299 300 301 301 301 301 301 301 301 300 300 300 300 299 299 299 298 298 299 299 299 299 299 299 298 298 298 298 298 298 298 298 298 298 297 298 298 298 298 298 298 299 299 299 300 300 300 301 301 302 302 303 304 305 306 308 312 315 318 319 319 319 319 319 319 319 319 319 318 318 318 318 317 317 317 317 316 316 316 317 316 316 314 313 311
299 300 301 301 301 301 300 300 300 300 300 300 299 299 299 298 298 298 298 298 298 298 298 298 298 298 297 297 297 297 297 297 297 297 297 297 297 297 297 297 297 297 297 298 298 298 298 299 299 300 301 301 302 302 303 305 307 310 314 316 318 319 319 319 319 318 318 319 319 319 318 316 316 315 315 315 316 316 316 316 316 315 314 312 310
299 300 300 300 300 300 300 299 299 299 299 299 299 299 298 298 297 298 298 298 298 298 297 297 297 297 297 297 297 297 297 297 297 296 296 296 296 296 296 296 296 297 297 297 297 297 297 297 298 298 299 300 300 301 302 303 305 307 310 313 316 318 319 319 319 318 318 318 318 317 316 315 314 313 312 314 316 316 315 315 315 314 313 311 309
299 299 300 300 300 299 299 299 299 299 299 298 298 298 298 297 297 297 297 297 297 297 296 296 296 296 296 296 296 296 296 296 296 296 296 296 296 296 296 296 296 296 296 296 296 296 296 296 297 297 298 299 300 300 301 302 304 307 309 311 314 317 318 318 317 317 317 317 317 315 314 313 312 311 311 314 315 314 313 313 312 312 311 310 308
299 299 299 299 299 299 299 299 298 298 298 298 298 298 297 297 297 297 297 297 296 296 295 295 295 295 295 296 296 296 296 296 296 296 295 295 295 295 295 296 296 295 295 295 295 295 295 296 296 296 297 298 299 300 300 301 302 304 307 310 313 315 316 316 316 316 315 315 314 313 312 312 311 310 311 312 311 311 310 310 309 309 308 307 305
298 299 299 299 299 299 299 298 298 298 298 298 297 297 297 297 297 297 297 296 296 295 294 294 294 294 294 295 295 295 295 295 295 294 294 294 294 294 295 295 296 295 295 295 294 294 294 295 295 296 296 297 298 299 300 301 301 302 304 307 310 313 312 311 312 313 314 313 310 306 307 309 309 309 308 308 307 307 307 306 305 304 304 303 302
297 298 299 299 299 299 298 298 298 298 298 298 297 297 297 297 297 296 296 296 295 295 295 294 294 295 295 295 295 294 294 294 294 294 295 294 294 294 294 295 295 295 295 295 294 294 294 294 295 296 296 296 297 299 300 301 301 302 304 305 308 310 310 310 309 310 312 312 307 302 302 304 307 307 305 304 304 304 303 303 303 302 302 301 301
297 298 299 299 299 298 298 298 298 298 298 297 297 297 297 297 297 296 296 296 295 295 295 295 295 295 295 296 296 295 295 295 295 295 295 294 294 294 294 294 295 295 295 295 295 294 294 294 295 296 296 296 296 298 300 301 301 302 304 305 307 308 309 310 310 309 309 308 305 302 301 301 302 303 302 301 301 301 301 300 301 300 300 300 299
297 298 298 298 299 298 298 298 298 298 298 297 297 297 296 296 296 296 295 295 295 296 296 296 296 296 296 296 296 296 296 296 295 295 295 294 294 294 294 294 294 294 294 294 294 294 294 294 294 295 296 296 297 298 300 301 301 302 303 305 306 308 308 309 309 308 306 304 302 301 299 297 297 298 298 297 298 300 300 300 299 299 299 298 298
Wind_Speed
11 16 19 20 22 25 26 27 28 27 30 33 33 33 29 29 28 22 21 25 26 27 27 25 23 22 23 23 22 21 19 17 15 13 11 10 9 9 9 10 10 10 8 7 7 8 8 8 8 8 8 8 6 6 8 10 11 11 12 13 15 18 21 18 18 21 21 16 12 11 10 9 8 8 9 10 10 11 11 12 11 11 10 9 8
10 13 17 20 21 25 25 26 30 28 29 35 38 34 29 28 27 24 24 26 27 27 28 28 26 24 24 23 22 20 18 17 16 14 11 9 9 8 8 8 9 8 7 7 7 8 9 9 9 9 9 8 7 7 9 12 12 11 12 13 14 18 21 20 19 17 15 13 11 9 7 6 7 7 8 7 8 9 10 11 11 11 11 10 9
10 10 13 18 22 25 24 24 29 30 30 36 35 30 28 29 27 27 28 28 28 28 28 28 26 23 22 22 21 20 18 17 15 14 11 9 9 8 7 7 6 6 7 6 6 7 8 9 10 10 10 9 8 9 10 12 12 12 12 12 14 16 19 22 17 11 13 15 11 6 3 3 4 5 6 5 5 6 8 9 9 9 9 8 7
11 10 10 14 17 18 21 26 26 24 25 29 28 25 28 31 29 29 30 30 30 28 26 25 24 21 21 21 20 19 19 17 16 15 13 11 9 8 7 7 6 6 6 6 6 8 9 9 10 10 10 9 9 9 11 12 11 11 10 11 14 15 18 19 11 12 20 16 7 3 2 3 1 2 6 6 4 4 4 6 6 7 7 7 7
12 11 9 11 13 14 21 29 25 19 16 18 22 26 30 33 32 31 32 32 31 28 26 24 22 22 21 19 18 19 18 18 18 17 15 13 10 9 9 8 7 6 6 6 6 8 9 9 9 9 9 8 9 9 9 11 11 11 9 10 14 14 16 15 9 15 20 12 7 6 3 2 1 4 6 6 5 5 4 5 6 5 6 9 10
11 12 12 14 19 22 27 31 26 21 20 24 27 25 28 31 31 31 32 32 30 28 26 23 23 24 23 21 22 22 21 20 20 19 16 14 13 11 11 9 8 7 7 6 7 8 8 7 7 7 7 7 9 8 9 10 10 11 9 9 12 13 14 14 13 17 15 9 9 9 4 4 6 8 5 3 5 6 5 7 8 8 11 12 11
12 14 15 15 19 22 24 28 28 26 28 32 30 21 21 27 28 30 31 30 29 27 25 24 24 25 25 25 26 25 22 21 19 17 14 14 14 12 10 10 10 9 9 9 8 8 7 6 5 6 6 6 7 7 8 8 8 9 8 8 10 12 12 14 16 17 13 9 8 7 5 8 14 13 5 4 4 4 4 7 9 12 14 13 10
14 15 15 14 16 18 21 26 29 31 29 28 27 22 24 29 30 30 29 27 27 26 25 26 27 27 28 28 27 25 23 21 19 16 14 13 13 12 10 9 10 9 9 9 9 8 7 5 4 6 7 7 6 5 6 6 5 6 7 8 9 10 10 12 16 17 15 12 9 7 7 12 16 12 10 12 6 2 4 5 9 13 14 13 11
14 14 14 12 15 21 27 28 30 35 35 30 29 28 29 33 33 31 28 26 26 27 28 28 29 30 31 30 29 26 23 22 21 18 16 14 13 12 11 11 11 9 9 9 8 8 7 6 4 6 8 8 7 6 5 6 6 6 7 9 10 9 9 9 13 16 16 15 13 12 13 15 13 9 14 17 9 6 4 2 7 11 12 13 13
12 13 13 15 19 23 25 26 27 35 40 36 32 31 32 36 35 31 27 25 27 29 30 30 32 32 32 31 28 26 23 23 23 21 18 16 14 13 13 12 11 10 9 9 8 9 8 7 6 8 9 9 8 7 7 7 7 6 6 8 8 8 8 8 9 12 15 16 16 18 19 18 12 8 12 15 11 8 5 6 10 10 10 10 11
11 11 12 17 22 24 22 21 23 31 38 39 36 34 35 36 34 29 27 26 28 30 31 31 31 31 30 29 27 26 25 25 26 23 20 18 17 15 13 12 11 10 10 10 9 9 8 8 8 10 12 10 9 8 7 7 7 7 6 7 7 7 7 7 8 10 14 17 17 20 24 23 17 13 15 17 13 10 8 7 10 11 10 10 14
12 10 11 13 15 18 19 20 22 27 33 37 37 36 35 34 33 29 28 27 28 30 30 29 29 29 29 29 28 27 27 28 27 24 21 20 19 17 15 13 11 10 10 10 10 9 9 11 12 13 14 12 9 8 8 8 7 7 7 8 7 7 7 7 8 9 13 17 17 17 20 22 21 20 21 21 19 19 16 9 9 11 9 11 19
11 9 10 11 11 13 18 22 24 25 27 31 33 33 33 33 33 31 30 28 27 28 29 28 28 28 29 29 28 28 28 27 25 23 21 20 20 19 17 14 12 10 10 10 10 9 10 12 13 12 12 12 11 9 8 8 8 8 8 8 8 8 9 8 8 9 13 17 17 16 16 17 19 21 21 20 21 25 21 12 11 12 11 13 19
11 9 10 10 10 14 18 21 23 24 25 26 25 26 29 30 30 29 29 27 26 27 28 27 25 25 27 29 29 28 27 25 23 22 21 20 20 18 15 14 13 11 10 9 9 10 11 11 11 10 10 12 12 10 9 9 9 10 10 9 10 11 11 9 8 9 12 15 17 16 15 15 18 21 20 20 24 25 22 17 13 11 13 15 13
9 9 9 8 9 13 15 17 21 22 20 16 15 18 22 24 25 25 26 25 23 23 25 24 22 22 27 29 27 26 24 23 23 22 21 19 18 17 15 15 14 13 11 9 8 9 10 11 10 8 9 12 13 12 11 11 10 11 12 12 12 12 11 10 9 9 10 11 14 15 14 14 18 22 21 21 25 26 24 24 19 11 9 9 9
8 8 8 7 8 9 9 12 15 13 9 5 9 16 19 22 22 22 24 23 21 20 21 21 19 21 26 27 26 25 22 23 24 22 19 18 17 17 17 16 15 14 12 10 8 8 9 10 10 8 9 12 14 13 13 12 12 13 14 14 13 11 10 10 9 9 9 10 11 13 14 16 20 22 22 22 25 25 24 25 25 19 10 5 5
7 7 7 6 7 6 6 8 7 5 4 3 6 12 17 21 22 21 21 21 19 19 19 19 18 20 23 25 25 24 21 22 23 21 18 17 16 17 17 16 15 14 13 12 10 9 8 8 9 10 10 11 14 15 14 13 14 14 14 15 14 11 11 11 10 10 10 11 11 11 13 17 20 20 22 24 24 24 23 23 25 26 20 10 4
4 4 3 2 2 3 3 5 4 4 5 6 6 7 11 16 19 19 20 20 18 17 18 17 15 16 20 23 23 22 20 20 20 19 17 16 15 17 17 17 16 14 13 12 10 9 9 9 11 13 12 13 15 16 15 13 14 14 13 14 14 13 14 15 14 13 13 13 13 12 14 18 19 17 19 23 24 23 22 21 22 25 26 21 12
4 5 5 4 4 5 4 5 5 5 8 9 8 6 8 11 13 14 16 17 16 15 15 15 12 14 19 22 22 21 19 19 18 18 17 15 15 17 18 17 16 14 11 11 10 11 12 13 14 14 13 14 15 16 15 13 13 13 13 13 13 14 16 17 17 17 18 17 16 15 16 18 18 16 16 20 22 23 23 22 22 24 27 27 23
5 6 6 6 8 8 7 8 9 8 9 10 9 8 9 9 10 12 13 14 13 11 11 9 7 10 15 19 21 20 19 19 18 18 16 15 16 18 18 17 14 12 11 12 12 13 14 14 14 13 14 14 14 14 14 14 14 13 13 13 13 14 16 17 17 17 18 18 18 19 20 21 21 19 19 19 19 22 25 25 25 26 26 24 24
6 7 7 8 10 11 10 11 11 11 11 10 10 10 10 10 10 10 11 12 11 9 8 10 13 13 10 12 16 18 20 19 17 16 15 15 16 17 16 14 12 11 13 14 14 13 13 13 13 14 14 13 14 14 13 14 15 15 14 14 14 16 17 16 15 15 16 16 17 20 22 23 24 23 21 19 17 17 21 26 28 27 25 23 22
6 6 7 8 11 12 12 13 13 13 13 11 11 11 11 10 10 9 10 11 10 9 8 8 11 12 12 14 15 15 19 19 16 15 14 14 15 15 14 12 11 13 14 14 13 13 13 12 12 13 13 12 12 12 13 15 16 16 16 16 16 17 17 15 15 16 17 17 17 18 20 21 21 21 20 17 15 14 15 21 28 29 26 24 21
6 6 5 7 11 12 13 15 15 15 16 15 13 13 13 12 10 10 10 10 9 8 6 5 8 13 17 17 15 13 16 17 16 14 13 14 14 13 12 10 11 13 13 12 12 12 13 12 11 13 13 12 11 12 14 16 16 16 16 17 17 18 18 17 17 17 18 18 18 18 17 16 17 18 17 14 13 13 13 16 24 27 26 24 20
6 6 6 8 12 11 12 14 15 17 18 16 14 14 14 13 12 11 10 9 8 10 10 8 10 14 16 16 14 12 10 12 15 14 12 13 13 13 12 11 11 12 12 12 11 11 12 11 12 13 13 12 12 13 14 15 15 15 16 18 19 19 18 18 17 16 17 17 18 17 14 13 14 14 13 12 11 13 14 16 21 23 22 20 18
8 8 8 9 9 9 10 13 16 17 15 12 12 11 11 11 13 13 12 11 11 13 12 10 10 12 15 16 15 14 10 9 13 12 9 11 13 12 12 11 11 12 14 14 12 12 12 12 12 12 13 13 13 12 13 14 14 14 15 17 19 18 17 16 15 15 16 15 15 14 13 11 12 12 11 11 12 13 14 16 18 18 18 16 14
11 11 10 9 9 10 12 13 13 14 13 11 10 10 9 11 12 13 13 12 13 15 14 14 13 13 14 16 17 18 15 10 10 9 8 11 12 11 12 12 12 13 14 15 14 13 13 13 12 12 12 14 13 12 13 13 13 14 16 16 16 16 16 15 15 14 14 14 13 12 12 11 11 12 12 12 13 14 14 15 16 16 16 14 13
10 11 10 10 10 11 14 15 13 13 13 12 10 9 10 11 11 12 12 11 11 13 15 17 17 15 16 19 20 18 16 14 13 11 9 11 12 12 12 13 13 13 13 14 16 15 14 14 13 12 13 14 13 13 14 13 12 15 18 17 15 16 17 16 15 14 14 13 12 12 12 12 12 12 12 12 12 13 13 14 15 15 14 13 13
12 11 11 10 9 10 13 17 18 18 18 17 14 11 9 10 12 12 11 9 9 11 14 15 16 16 19 21 20 18 17 18 19 13 8 11 15 13 13 13 13 13 12 13 16 15 14 16 16 14 15 15 14 14 15 15 14 16 18 18 17 17 17 17 16 15 14 13 12 12 12 13 13 12 11 11 12 13 13 14 14 14 14 14 14
12 11 10 10 9 9 13 17 20 21 22 21 20 16 11 10 11 12 11 10 10 12 12 11 11 13 16 16 16 18 18 19 20 12 4 8 13 14 14 13 13 14 12 12 16 15 14 16 18 17 17 17 15 15 16 17 16 16 17 18 18 16 15 17 18 17 15 15 14 14 13 13 13 13 13 12 12 13 14 14 14 14 15 15 15
11 10 9 9 10 12 15 19 21 22 23 23 23 22 19 16 14 14 15 13 12 12 11 9 9 10 12 10 11 15 17 15 13 8 5 7 9 9 12 12 10 12 12 12 15 16 15 15 17 19 20 20 18 17 17 18 17 17 16 17 19 16 14 17 19 19 18 17 16 16 15 15 14 14 14 14 13 13 14 13 14 14 15 15 15
10 10 10 11 12 14 17 20 21 22 23 24 25 27 27 24 22 22 22 20 18 16 12 10 10 10 9 8 6 8 10 8 6 4 6 9 8 6 8 9 7 7 9 11 12 14 14 14 15 17 19 20 21 21 19 19 19 19 18 18 19 18 16 17 18 19 20 19 19 18 18 17 17 16 16 15 14 14 14 13 13 14 15 15 15
9 10 11 11 11 12 15 18 20 22 24 24 26 29 29 27 27 27 28 29 28 25 20 16 12 11 10 8 6 5 6 6 4 3 5 8 9 8 6 7 6 2 2 6 9 10 10 12 14 15 14 15 19 22 23 21 21 21 20 20 20 20 20 20 20 21 21 21 21 21 20 19 19 18 18 18 17 17 16 16 16 15 15 15 16
10 10 11 11 11 13 16 18 20 22 23 24 27 29 27 25 26 27 29 31 30 30 30 27 22 19 17 15 11 9 7 5 3 2 3 4 7 8 7 6 6 4 4 4 5 7 8 8 10 11 12 12 13 18 23 24 23 23 22 22 22 23 23 24 24 24 24 24 23 22 22 21 20 20 20 20 20 20 19 19 18 18 18 17 17
10 10 10 10 13 18 21 21 21 22 22 25 27 27 26 26 27 27 29 29 29 30 30 29 28 26 25 24 21 18 15 12 11 9 7 5 1 2 3 3 4 5 6 9 9 9 9 8 9 9 10 11 11 14 18 22 23 23 23 23 23 24 25 26 26 26 26 25 25 24 24 23 22 22 21 21 21 21 21 21 20 20 20 20 19
8 9 11 12 15 19 22 23 23 23 24 26 26 26 27 28 28 28 28 28 28 29 28 27 27 26 26 26 25 24 23 21 20 20 18 15 11 7 6 6 6 6 8 11 12 11 10 10 11 11 10 10 11 12 14 17 20 21 21 22 22 24 26 27 28 28 28 27 26 26 26 26 25 24 23 23 23 22 22 22 21 22 22 21 20
7 9 11 14 17 18 19 20 20 22 25 25 24 24 26 27 26 27 27 27 28 28 27 26 25 25 25 25 24 23 23 22 22 21 21 21 18 15 13 11 8 7 8 9 10 9 9 10 11 12 13 13 12 12 12 14 16 17 19 20 21 22 24 26 27 28 29 28 27 27 27 27 26 25 24 25 24 24 24 24 23 23 23 22 21
10 12 13 15 17 17 18 20 21 21 22 21 20 21 24 26 25 25 26 27 28 28 27 25 25 23 22 22 22 22 21 21 20 20 20 19 17 15 15 13 11 10 10 10 11 11 10 10 11 11 13 15 16 16 15 15 16 16 18 19 20 21 23 24 25 26 26 26 27 29 30 29 28 28 27 26 26 25 25 25 25 25 23 21 20
11 13 14 15 16 18 19 21 23 22 20 18 17 17 21 24 25 25 25 27 27 26 25 24 24 22 21 20 20 20 20 20 20 20 19 18 16 14 14 13 13 13 13 13 14 13 12 12 12 12 12 14 16 17 17 18 19 19 19 20 21 22 23 24 24 24 24 25 27 29 30 30 31 31 29 27 26 26 26 26 26 26 24 22 20
9 11 13 14 16 19 20 20 21 21 18 17 17 18 22 24 24 24 25 26 25 23 23 22 21 20 19 19 18 18 18 18 19 19 18 18 16 15 14 14 14 15 15 15 16 16 16 15 14 15 15 16 17 17 18 18 19 20 21 21 22 22 22 23 24 25 26 27 27 27 27 29 30 29 28 27 26 26 26 26 28 28 27 24 22
12 11 13 15 17 19 20 19 19 18 16 17 19 21 23 23 22 23 23 22 20 19 18 18 18 18 18 18 18 18 17 17 17 17 17 17 17 16 16 16 16 16 17 17 17 18 18 18 17 17 17 17 18 19 20 21 21 21 22 22 23 24 24 25 26 25 25 27 27 27 27 28 28 28 29 29 28 26 25 25 28 29 27 24 23
15 13 15 17 18 18 18 17 16 15 16 18 20 21 21 21 22 23 21 19 17 16 16 15 15 16 16 16 16 16 16 16 16 16 15 15 16 16 17 17 17 18 18 18 18 18 19 19 18 19 19 19 19 19 20 22 24 24 24 24 25 26 25 26 27 25 25 26 27 28 28 29 28 29 30 29 26 24 24 25 28 27 23 22 22
14 14 16 17 17 16 16 16 15 15 16 18 20 21 21 22 24 24 20 17 16 16 15 15 15 15 15 15 15 15 14 14 15 15 14 14 14 14 14 15 16 16 16 17 18 18 19 19 18 17 18 18 18 19 20 22 24 26 26 27 27 27 26 26 26 25 26 27 28 29 29 28 28 28 27 25 23 22 23 25 26 23 19 19 21
14 14 13 14 14 12 11 11 11 12 13 15 18 21 21 22 23 21 17 15 16 16 15 15 15 15 15 15 15 14 14 14 15 14 13 13 13 14 13 14 15 15 15 16 16 17 19 20 19 18 16 16 16 16 17 20 23 26 29 30 30 29 28 28 28 27 28 29 29 28 27 27 27 25 22 22 23 22 23 24 23 20 18 18 20
13 12 12 12 11 9 10 10 10 10 12 14 17 19 20 20 19 17 15 15 16 16 16 16 16 16 16 16 15 15 14 14 14 14 14 15 15 15 15 15 15 16 16 16 17 18 19 20 21 21 19 17 17 16 16 17 19 23 27 31 33 33 31 30 30 29 29 30 29 28 27 25 24 21 18 18 21 24 24 23 20 19 19 20 22
10 11 11 9 7 9 14 17 17 16 16 17 17 17 18 17 15 14 15 15 15 16 16 16 16 16 15 15 14 14 14 14 15 15 16 16 17 16 16 16 16 17 17 16 18 19 20 20 21 22 22 21 19 18 18 17 18 20 23 27 31 34 34 31 29 28 28 29 29 28 26 25 24 21 16 16 20 24 24 22 21 21 22 23 24
10 10 10 8 8 12 17 20 19 17 17 16 16 16 16 14 13 13 14 14 14 15 15 15 15 15 14 14 15 15 15 16 16 16 16 17 17 17 17 17 17 17 17 17 18 18 20 21 22 23 24 23 21 20 19 18 18 19 20 23 27 32 34 30 26 26 26 26 27 26 26 26 25 22 20 19 22 24 23 21 22 23 24 25 25
10 10 10 9 13 16 17 17 17 16 15 16 15 15 14 12 11 13 14 14 15 16 16 16 16 15 14 15 17 17 18 18 19 19 19 18 18 18 18 18 18 17 16 17 18 19 20 22 23 24 25 25 23 21 19 17 18 19 19 20 24 29 31 27 25 25 24 22 24 27 30 28 24 21 21 22 23 23 23 23 24 24 24 23 22
11 11 9 8 13 15 15 16 16 15 14 14 15 14 13 12 12 13 15 16 17 17 17 17 17 16 15 16 17 18 18 19 19 19 19 19 19 18 18 18 17 16 16 17 18 19 20 21 22 24 26 27 26 23 19 17 17 19 22 22 23 25 26 24 23 23 24 22 21 24 27 28 25 23 23 25 25 26 26 26 25 24 23 22 21
12 11 6 7 11 14 15 15 14 13 13 13 14 14 13 13 14 14 15 17 17 16 17 18 17 17 16 16 17 17 17 17 18 18 18 18 18 18 18 17 15 14 16 17 18 19 19 19 20 22 22 24 26 24 20 16 16 17 21 24 23 22 22 21 19 19 20 21 20 20 22 25 29 29 29 29 29 28 27 26 25 23 23 22 21
11 9 8 10 12 13 14 13 12 11 12 13 15 15 14 13 13 13 14 15 14 14 15 16 16 17 17 18 18 18 18 18 19 20 20 21 20 19 18 17 16 15 16 17 17 19 19 19 19 20 19 20 24 25 21 18 15 15 18 22 22 20 18 16 15 15 17 20 22 24 23 21 25 31 32 31 30 28 27 26 25 23 23 22 21
7 6 9 11 11 12 12 11 10 9 11 13 14 13 11 11 11 11 11 11 11 11 12 14 15 16 17 17 18 18 19 19 20 20 22 23 24 23 21 19 17 17 17 17 17 19 19 19 19 20 20 20 22 21 19 18 16 14 16 20 20 19 17 16 15 16 18 21 25 28 24 18 17 23 26 26 27 28 27 26 25 23 21 21 20
Wind_Direction
146 149 155 152 147 141 141 145 142 144 152 161 169 173 179 184 177 166 167 173 174 172 172 175 184 185 179 181 185 188 195 199 200 197 192 193 192 194 195 195 203 205 208 215 220 221 214 212 209 201 197 187 179 170 160 164 161 156 155 151 147 140 137 141 143 136 122 114 117 116 118 130 134 138 145 153 161 169 176 181 183 180 180 187 193
139 145 154 153 144 139 140 142 144 148 157 169 176 173 175 179 175 168 170 177 178 177 178 176 181 187 182 182 184 184 190 192 192 191 186 189 189 186 187 193 202 204 205 206 206 211 208 207 202 193 187 175 163 153 151 159 163 165 164 158 155 145 141 149 150 137 125 130 132 109 97 116 126 133 140 153 158 159 168 178 183 184 190 198 199
146 148 154 152 142 139 138 139 149 157 162 174 177 171 171 175 173 172 173 179 181 182 183 176 177 186 181 177 179 180 185 187 186 185 179 176 175 172 175 180 188 196 200 195 188 189 189 189 185 181 178 167 160 155 153 163 168 173 175 171 163 148 145 153 153 147 143 140 131 112 95 99 103 116 121 131 145 154 167 175 183 190 196 201 194
146 146 145 142 134 135 135 133 144 156 164 176 177 170 175 176 173 174 177 181 181 183 183 174 173 182 177 173 179 183 186 189 187 182 173 165 163 162 161 164 173 184 185 177 175 173 171 174 176 177 175 166 167 165 160 167 172 175 181 187 178 158 152 160 168 164 153 143 125 98 93 99 105 128 103 88 99 134 163 177 193 203 187 171 166
136 132 117 110 100 99 117 126 137 150 162 181 183 179 180 178 175 176 180 181 180 182 181 173 174 179 177 173 172 171 174 179 180 175 170 165 164 161 156 160 168 168 165 168 173 169 167 172 177 176 171 166 172 177 172 172 176 179 187 196 190 175 164 168 174 165 161 157 152 139 115 115 183 155 118 78 72 96 120 148 163 174 152 142 142
115 108 103 102 103 107 122 135 143 152 163 178 187 189 183 178 176 176 179 180 179 181 178 175 178 181 181 172 160 156 158 165 170 168 167 167 164 159 155 156 153 144 141 147 155 161 163 166 172 173 170 166 171 180 183 181 184 188 196 199 192 186 178 170 162 165 171 170 160 161 196 217 164 143 127 71 71 80 104 138 141 137 138 137 133
100 101 109 113 118 125 139 150 152 157 168 175 181 191 186 179 177 177 179 179 178 180 180 181 184 184 183 175 164 160 160 163 166 163 159 162 165 166 165 157 144 132 128 129 134 139 138 140 151 160 161 159 166 177 182 188 195 196 202 202 190 188 187 178 167 168 172 171 166 169 220 211 163 145 146 142 104 74 109 136 138 137 137 131 124
104 111 116 117 127 142 158 163 157 157 167 174 176 183 185 181 179 178 179 179 180 184 185 186 187 184 180 174 170 168 165 163 163 158 152 159 167 171 174 166 150 140 136 134 132 133 131 133 149 162 163 156 153 161 168 177 187 189 194 192 183 182 189 188 178 175 177 172 162 158 185 188 164 146 147 144 125 85 111 125 141 144 141 126 121
112 120 120 129 151 163 169 169 161 157 164 174 178 180 181 178 177 178 179 180 181 181 182 185 185 180 175 171 169 167 164 163 164 162 158 160 158 152 152 157 158 156 150 141 136 137 136 131 151 173 173 162 150 149 154 159 166 172 180 176 173 176 185 196 187 184 185 174 160 157 163 169 161 140 141 139 129 132 137 153 152 148 143 128 128
116 123 132 154 169 171 168 166 163 161 165 173 180 181 179 176 177 179 182 180 175 174 176 177 177 173 170 168 165 163 161 162 165 165 162 161 155 145 143 150 159 161 156 149 144 146 139 124 138 168 171 161 150 150 151 155 161 162 168 168 168 176 184 197 197 191 188 177 164 158 158 160 156 138 142 141 131 128 132 154 158 157 150 134 141
127 134 150 164 166 165 162 164 169 167 166 172 180 184 180 178 179 180 181 178 171 171 171 171 171 170 169 167 164 162 161 160 162 163 163 163 161 158 155 155 155 156 161 164 159 159 147 123 124 145 153 150 145 149 149 149 157 157 162 166 170 182 183 191 198 190 183 175 167 165 167 168 169 166 161 152 140 133 133 146 159 158 144 131 147
138 147 159 163 160 159 162 170 176 172 169 173 181 184 180 179 179 179 181 179 172 170 170 171 171 170 169 167 165 165 164 163 163 164 165 165 163 162 161 158 151 147 158 166 165 163 145 128 126 132 141 143 140 147 151 150 155 156 161 170 172 176 175 180 186 183 181 177 172 171 172 175 178 177 167 156 149 149 147 146 157 151 125 124 146
145 158 165 165 161 165 175 178 176 175 176 178 183 184 180 178 179 178 180 180 174 170 171 172 171 170 170 169 168 167 166 166 166 165 165 167 166 163 163 165 161 152 150 152 155 157 145 135 133 132 137 141 138 142 153 154 157 158 160 166 163 157 160 168 170 170 178 180 177 172 171 178 184 179 169 159 153 152 149 144 148 140 120 128 147
151 167 174 171 168 176 182 178 172 177 182 183 187 186 180 179 179 177 179 181 178 173 174 174 174 175 174 171 170 168 168 169 168 165 165 168 170 169 170 174 172 168 161 151 146 150 149 144 139 131 134 145 145 144 152 154 154 154 153 152 149 145 147 153 153 156 169 179 180 175 173 182 185 181 176 165 157 156 153 147 140 127 123 130 141
160 174 177 175 180 184 182 175 174 179 180 183 193 189 181 177 176 175 177 180 180 177 177 176 175 176 175 173 173 172 171 170 166 165 166 169 173 175 175 175 173 172 170 165 155 152 153 152 149 140 135 148 152 146 147 153 152 150 148 147 146 145 147 147 148 149 156 170 178 177 175 178 180 180 180 174 166 163 160 155 146 129 123 127 128
167 174 173 174 183 190 190 179 172 167 163 177 195 189 181 173 173 175 177 179 181 181 181 177 172 175 176 175 176 175 171 167 165 165 168 172 176 177 176 173 172 172 174 177 174 166 160 154 155 154 145 152 156 148 144 149 151 147 144 144 144 148 152 151 153 153 149 155 165 173 174 172 175 180 181 179 175 170 167 163 156 149 143 125 115
169 172 172 178 177 182 197 182 153 120 116 138 180 189 182 171 168 170 174 178 181 183 184 178 173 177 179 176 175 172 167 164 163 163 166 171 177 179 175 172 173 174 176 179 179 175 170 166 162 154 144 152 160 155 149 150 150 146 142 140 141 147 149 146 146 146 144 147 150 158 165 166 172 180 183 182 180 177 174 169 167 163 155 142 124
144 124 130 149 143 139 160 157 123 89 114 137 167 193 183 168 163 163 169 175 179 184 185 179 174 178 179 175 170 167 164 164 164 164 165 169 175 178 174 171 172 173 175 178 179 176 171 166 160 149 140 146 156 157 154 155 154 150 147 143 142 144 141 135 133 132 132 134 132 138 152 160 166 172 180 182 181 180 180 180 183 176 166 163 159
92 75 66 45 49 58 77 102 97 100 120 136 153 165 164 161 155 153 160 168 172 178 180 178 177 178 178 172 166 163 163 165 165 164 165 165 168 172 171 170 170 173 180 180 175 169 161 156 151 148 147 149 153 156 157 159 160 159 157 150 146 147 141 135 132 131 131 129 121 124 141 154 161 168 176 185 188 187 186 190 193 185 178 175 169
74 75 70 58 57 63 78 90 93 104 116 123 123 119 131 146 146 144 151 161 167 169 170 167 154 161 170 167 163 162 162 161 160 160 162 163 164 168 170 170 170 173 176 169 163 162 160 158 157 155 156 156 157 159 159 161 161 160 161 156 149 148 143 138 137 136 136 133 124 124 133 142 150 155 161 172 186 193 197 199 196 189 185 183 175
75 84 86 85 84 86 91 93 95 100 107 113 108 101 111 125 133 138 143 152 156 146 129 96 72 74 99 129 148 159 161 161 161 162 162 162 165 169 169 168 168 169 166 162 165 171 170 169 167 163 162 160 161 163 163 164 161 160 162 157 150 148 145 143 145 146 148 147 137 131 133 139 143 144 146 150 158 173 190 198 198 194 190 187 183
82 82 82 89 94 95 94 94 95 96 96 101 106 103 105 113 123 129 128 134 139 136 128 102 82 86 109 132 145 155 159 161 162 163 165 166 167 170 169 166 165 164 165 168 175 182 180 176 170 166 166 163 164 169 169 168 165 164 166 161 153 151 151 152 154 153 155 158 153 143 138 140 141 141 142 144 145 148 164 185 195 196 190 185 185
85 84 74 76 84 88 91 89 87 86 81 79 88 97 98 98 104 113 117 123 131 135 145 155 137 135 143 152 150 143 149 156 159 161 167 169 169 170 168 164 163 164 169 177 183 186 184 183 179 174 170 167 168 166 165 168 169 171 172 169 162 157 157 159 159 157 157 158 157 153 148 147 145 140 139 142 146 147 146 164 183 188 184 180 186
67 74 67 65 71 76 84 84 79 77 76 76 84 93 97 99 104 111 119 128 127 119 114 113 118 128 142 149 145 140 142 147 151 156 167 171 170 172 169 162 162 167 173 180 183 186 187 188 186 180 175 174 173 169 167 171 174 174 174 173 169 163 161 163 163 162 162 161 157 152 149 153 155 148 145 149 152 152 151 156 167 176 179 181 189
61 64 60 56 56 55 64 77 81 81 79 83 95 103 107 111 114 115 119 128 127 121 123 126 126 137 154 160 157 164 171 153 142 146 163 176 176 175 174 168 166 172 180 186 187 189 192 191 187 183 181 181 180 178 178 178 177 177 175 173 172 168 166 170 170 167 167 166 161 153 148 155 162 159 158 163 163 159 158 160 165 173 180 184 188
65 62 56 50 44 39 42 56 75 87 87 87 99 109 109 108 109 107 107 114 123 126 131 142 143 142 157 169 169 174 179 166 150 156 171 181 184 185 182 179 177 179 186 194 196 195 197 195 190 186 186 187 186 184 184 183 184 184 180 178 178 176 173 175 178 177 175 175 172 166 162 165 170 170 167 166 166 163 162 163 167 173 178 179 180
66 64 59 53 45 38 39 43 53 67 73 75 84 99 105 107 108 107 107 109 121 131 132 138 145 143 150 162 166 171 173 164 165 181 192 190 191 195 192 187 187 189 193 200 201 201 203 200 193 187 188 190 190 190 190 187 183 182 182 181 180 178 176 178 184 188 189 189 189 187 184 182 183 184 179 177 178 177 176 174 174 176 178 177 174
67 64 63 61 55 50 51 53 54 57 57 54 56 69 89 98 100 109 118 117 121 134 134 136 146 149 151 158 162 166 170 169 171 182 206 206 200 201 198 192 191 195 199 200 198 199 205 205 198 192 193 195 195 196 195 189 181 181 184 183 180 179 180 186 192 196 199 201 202 203 202 199 199 199 196 195 197 196 194 191 189 188 187 183 178
71 68 67 67 64 59 56 58 58 56 55 51 49 54 65 73 78 85 91 99 109 118 123 127 137 147 154 160 164 168 171 174 176 178 192 203 200 201 200 196 197 201 203 201 198 199 207 210 206 201 199 200 200 197 194 192 187 188 190 189 186 184 186 193 197 199 200 202 203 203 205 208 209 209 209 209 208 209 209 204 200 199 198 195 191
77 73 71 67 63 59 55 55 54 52 52 51 49 54 63 68 67 62 62 73 88 90 91 96 100 119 142 155 170 180 179 176 176 172 157 171 184 190 190 190 195 202 205 205 202 203 210 216 213 208 204 205 203 197 194 197 197 197 199 197 194 193 192 194 197 198 200 203 205 205 205 208 211 212 213 214 213 217 220 216 212 208 206 206 204
81 76 70 63 57 55 52 51 50 51 53 54 55 62 68 70 69 68 67 70 73 72 71 71 75 89 108 122 148 178 184 180 175 175 183 190 192 181 172 171 173 189 200 202 202 207 215 220 218 213 211 212 211 205 201 202 203 202 203 201 200 204 204 202 203 203 204 206 208 209 210 211 212 212 213 217 219 222 226 227 226 221 217 217 217
72 65 61 56 50 47 47 47 48 51 53 56 62 68 70 70 72 74 75 74 72 72 71 69 71 77 81 92 111 130 154 171 182 215 223 212 210 216 210 187 173 168 217 208 206 211 218 223 222 220 219 220 221 216 211 209 208 207 207 205 204 206 207 210 213 213 214 215 214 213 213 214 214 214 215 217 220 223 228 232 234 234 233 231 228
73 64 54 48 47 46 42 41 45 48 51 57 65 69 70 72 75 76 75 74 71 69 70 69 69 68 64 67 78 91 112 135 151 207 217 197 202 221 239 230 222 258 309 300 253 228 224 226 227 230 232 232 232 225 217 216 215 212 211 212 212 211 210 212 215 218 219 221 220 218 215 214 215 216 217 218 221 223 225 226 229 232 233 233 232
84 79 68 55 53 54 48 43 43 46 51 60 66 69 70 72 74 73 72 71 68 66 65 64 62 60 57 60 64 67 70 69 64 62 62 57 62 243 272 291 281 276 291 307 297 267 250 244 237 239 243 240 237 231 223 219 219 218 218 219 220 219 218 217 219 222 223 224 225 223 221 220 217 216 219 222 223 223 223 222 223 224 225 226 227
83 86 86 78 70 65 59 53 49 49 53 57 61 67 71 71 70 70 68 66 65 62 59 57 56 53 51 53 55 56 56 55 54 53 51 45 37 23 11 3 348 319 297 302 303 288 276 269 257 249 248 244 238 234 228 223 222 224 226 226 226 226 225 225 226 225 222 222 225 226 225 226 225 224 227 229 228 227 225 223 221 220 219 219 219
88 90 96 95 89 84 78 70 61 57 56 56 57 64 70 69 67 65 63 60 59 55 51 50 48 45 44 44 44 46 46 44 44 45 45 42 39 33 28 20 3 339 320 319 320 313 302 293 280 261 250 247 246 245 243 235 230 229 229 229 230 230 230 231 231 228 222 221 226 230 229 229 233 237 239 238 237 234 229 225 222 219 217 215 215
96 95 95 93 89 87 86 81 73 65 60 60 58 59 63 63 60 59 57 56 55 51 46 43 39 36 34 34 34 36 36 35 35 35 33 31 29 27 25 18 4 351 346 345 341 335 322 308 299 283 261 251 248 249 254 254 249 243 239 237 236 236 236 236 236 235 230 225 226 231 234 235 241 247 247 244 241 237 231 226 222 219 216 213 214
95 96 90 85 81 77 74 73 72 68 63 62 62 58 56 55 53 53 54 53 53 50 46 43 39 36 32 29 27 27 26 25 25 25 23 19 15 12 7 2 357 350 345 344 341 336 329 321 315 307 293 274 259 253 255 259 259 256 253 251 249 248 245 244 244 245 242 234 229 231 236 239 244 248 249 246 243 238 232 227 223 218 214 211 210
82 91 86 82 81 77 69 63 64 65 61 63 68 66 60 56 53 53 53 51 50 49 49 48 46 42 39 34 30 26 23 21 18 16 14 11 7 1 352 347 346 343 339 337 336 332 327 324 322 318 313 302 285 270 262 262 262 261 260 258 257 255 254 254 255 251 244 240 237 236 237 239 241 244 246 247 247 242 234 228 223 216 210 208 206
66 83 86 83 80 75 67 61 61 63 62 63 68 69 64 58 55 55 52 49 48 48 47 46 43 41 38 35 32 30 26 22 16 10 7 3 358 352 346 341 339 337 335 331 331 331 325 317 315 314 313 310 303 290 274 266 262 261 260 260 258 257 257 260 262 256 246 241 239 237 236 238 240 243 247 248 248 243 235 226 219 214 211 209 202
68 79 82 78 70 63 59 58 59 62 62 59 59 60 59 54 51 50 49 50 50 45 40 37 33 32 31 29 27 25 23 21 16 9 4 360 355 351 347 343 338 336 334 330 329 330 327 318 312 311 310 308 307 302 290 277 269 263 260 258 257 258 260 263 262 257 249 243 238 236 238 240 242 246 248 246 241 236 231 224 217 213 214 211 199
75 80 80 75 65 58 58 57 57 59 56 49 51 56 56 51 49 48 47 47 46 40 35 33 30 28 26 22 20 18 18 17 12 9 8 7 5 360 354 351 347 342 339 336 332 330 328 324 317 314 316 313 307 304 299 290 282 275 269 264 262 264 266 265 261 256 250 245 241 241 243 245 246 246 243 238 232 226 224 223 218 212 209 204 193
73 75 82 82 73 66 65 58 53 53 46 43 55 61 57 50 46 42 36 33 31 27 24 22 21 20 18 15 14 14 16 15 13 13 14 14 13 8 4 2 359 354 352 347 341 336 333 330 324 319 320 322 317 309 301 292 285 280 274 270 268 267 267 264 260 256 253 250 246 244 242 243 243 238 234 232 227 218 215 217 218 212 202 192 184
68 73 84 88 82 73 64 55 53 57 55 57 65 65 58 51 43 32 23 20 16 12 10 10 10 10 9 10 11 13 15 18 19 17 16 13 11 6 4 3 0 358 358 354 349 345 340 336 333 326 321 321 321 318 311 302 290 279 273 271 269 265 262 260 258 256 255 252 247 241 238 236 231 224 228 233 222 210 207 207 208 208 200 187 179
68 74 73 69 74 77 72 70 71 72 69 65 62 58 55 50 39 26 20 17 11 8 8 8 8 7 5 6 8 10 11 13 13 12 12 11 8 4 1 360 357 356 357 355 351 348 344 341 338 333 328 322 317 315 315 314 306 289 276 272 269 264 259 258 256 253 250 248 245 239 231 224 217 214 222 224 210 203 203 201 200 202 195 183 176
66 60 48 49 82 92 85 79 75 71 66 60 52 49 50 45 34 25 20 16 12 12 12 11 10 8 6 5 5 4 4 2 2 2 2 1 0 358 355 353 352 352 353 351 349 348 346 341 336 334 332 326 318 312 310 314 317 306 287 277 273 267 260 256 250 245 242 243 244 236 222 213 212 215 217 210 197 193 194 190 187 187 182 176 173
53 41 40 67 95 96 89 82 75 65 58 54 48 45 43 38 30 23 15 10 10 11 9 7 4 1 358 356 355 354 353 352 350 349 348 347 348 348 346 345 345 345 344 344 343 342 341 337 333 331 331 327 320 312 307 310 321 320 307 294 280 269 262 256 245 236 232 234 234 224 212 207 206 204 202 197 188 180 176 169 166 168 169 168 168
41 31 38 76 96 94 86 79 73 62 52 47 43 39 34 26 20 15 7 5 7 8 9 9 7 3 359 354 351 349 346 345 344 344 344 344 343 341 339 336 334 333 332 333 335 334 332 330 327 327 327 325 321 313 305 307 316 318 316 308 293 276 269 264 251 235 223 221 223 215 203 196 190 185 182 180 173 167 164 161 159 161 163 162 164
35 31 48 90 99 95 87 79 72 59 45 37 29 23 18 12 7 3 360 2 4 4 5 7 7 5 1 355 350 348 344 342 340 340 342 343 341 339 334 328 323 321 319 320 323 327 327 323 320 322 325 325 321 313 303 299 304 305 304 304 298 287 278 275 267 247 228 220 217 207 192 182 177 174 173 169 164 162 160 159 160 161 160 160 163
34 48 85 101 101 96 89 81 70 50 32 22 13 6 3 1 358 356 356 359 358 354 353 356 356 354 350 345 343 342 341 339 337 337 338 338 337 336 333 326 320 315 313 311 311 315 319 316 312 314 318 321 321 316 302 289 291 296 295 294 293 287 277 269 262 245 224 211 200 191 187 185 177 171 169 166 162 160 157 153 154 157 157 158 161
38 71 89 87 89 94 90 79 65 44 28 20 13 5 358 352 350 349 349 349 347 345 345 346 345 344 342 339 337 336 337 338 338 337 335 332 329 329 328 325 321 316 314 313 308 307 310 310 306 306 307 312 318 317 301 283 280 287 291 290 287 277 264 254 246 229 209 197 189 182 184 196 189 169 163 161 157 157 156 153 152 154 155 157 158